Torna al catalogo

STARLINK-36457

AttivoComunicazioniVLEO
NORAD 67349·PAYLOAD·🇺🇸 United States

Lanciato Jan 9, 2026 da Cape Canaveral Space Force Station

Loading…

Prossimi Passaggi (prossime 24 ore)

TLE

AggiornatoSource: CelesTrak SupGP

Epoca: Sep 14, 2026, 23:16 UTC

1 67349C 26003R   26257.96993056  .00019382  00000+0  70182-3 0  2579
2 67349  42.9995 238.0731 0000760 260.7132  50.0593 15.27578123    11

Traccia STARLINK-36457 in tempo reale con AllMySat

Download on the App Store